Weather History for Grand Island, NE

Change the Weather History Date:

Saturday, July 28, 2012

  Actual Average Record
Temperature  
Mean Temperature 80 °F 76 °F  
Max Temperature 96 °F 87 °F 106 °F (1917)
Min Temperature 64 °F 65 °F 50 °F (1994)
Degree Days  
Heating Degree Days 0 0  
Month to date heating degree days 0 0  
Since 1 June heating degree days 11 24  
Since 1 July heating degree days 0 0  
Cooling Degree Days 15 11  
Month to date cooling degree days 496 317  
Year to date cooling degree days 1017 595  
Since 1 June cooling degree days 835 530  
Growing Degree Days 30 (Base 50)    
Moisture  
Dew Point 64 °F    
Average Humidity 62    
Maximum Humidity 81    
Minimum Humidity 43    
Precipitation  
Precipitation T in 0.10 in 2.97 in (1915)
Month to date precipitation 0.13 3.07  
Year to date precipitation 7.14 17.32  
Snow  
Snow 0.00 in 0.00 in - ()
Month to date snowfall 0.0 0.0  
Since 1 June snowfall 0.0 0.0  
Since 1 July snowfall 0.0 0.0  
Snow Depth 0.00 in    
Sea Level Pressure  
Sea Level Pressure 29.99 in    
Wind  
Wind Speed 12 mph (SE)    
Max Wind Speed 22 mph    
Max Gust Speed 30 mph    
Visibility 10 miles    
Events      
T = Trace of Precipitation, MM = Missing Value Source: NWS Daily Summary

Daily Weather History Graph

Daily Weather History Graph

Search for Another Location

Airport:

Trip Planner

Search our weather history database for the weather conditions in past years. The results will help you decide how hot, cold, wet, or windy it might be!

Date:

Astronomy

Jul. 28, 2012 Rise Set
Actual Time 6:26 AM CDT 8:52 PM CDT
Civil Twilight 5:54 AM CDT 9:24 PM CDT
Nautical Twilight 5:15 AM CDT 10:02 PM CDT
Astronomical Twilight 4:32 AM CDT 10:45 PM CDT
Moon 4:59 PM CDT 1:46 AM CDT
Length of Visible Light 15h 29m
Length of Day
14h 26m
Waxing Gibbous, 76% of the Moon is Illuminated
Jul 28
Waxing Gibbous
Aug 1
Full
Aug 9
Last Quarter
Aug 17
New
Aug 24
First Quarter

Hourly Weather History & Observations

Time (CDT) Temp. Heat Index Dew Point Humidity Pressure Visibility Wind Dir Wind Speed Gust Speed Precip Events Conditions
12:53 AM 70.0 °F - 60.1 °F 71% 30.04 in 10.0 mi ESE 8.1 mph - N/A   Clear
1:53 AM 69.8 °F - 60.8 °F 73% 30.08 in 10.0 mi SE 6.9 mph - N/A   Clear
2:53 AM 69.1 °F - 60.1 °F 73% 30.03 in 10.0 mi SE 10.4 mph - N/A   Clear
3:53 AM 69.1 °F - 60.1 °F 73% 30.02 in 10.0 mi SE 8.1 mph - N/A   Clear
4:53 AM 66.9 °F - 61.0 °F 81% 30.02 in 10.0 mi SSE 11.5 mph - N/A   Clear
5:53 AM 66.9 °F - 61.0 °F 81% 30.05 in 10.0 mi ESE 8.1 mph - N/A   Clear
6:53 AM 66.0 °F - 61.0 °F 84% 30.09 in 10.0 mi East 8.1 mph - N/A   Clear
7:53 AM 66.9 °F - 61.0 °F 81% 30.07 in 10.0 mi ESE 11.5 mph - N/A   Clear
8:53 AM 73.0 °F - 61.0 °F 66% 30.06 in 10.0 mi SSE 13.8 mph 21.9 mph N/A   Clear
9:53 AM 78.1 °F - 62.1 °F 58% 30.04 in 10.0 mi SSE 18.4 mph 26.5 mph N/A   Clear
10:53 AM 82.0 °F 83.0 °F 62.1 °F 51% 30.03 in 10.0 mi SSE 17.3 mph 25.3 mph N/A   Clear
11:53 AM 84.9 °F 86.1 °F 64.0 °F 49% 30.02 in 10.0 mi South 16.1 mph 21.9 mph N/A   Clear
12:53 PM 88.0 °F 89.6 °F 64.9 °F 46% 30.00 in 10.0 mi SE 13.8 mph 19.6 mph N/A   Clear
1:53 PM 91.0 °F 95.2 °F 68.0 °F 47% 29.97 in 10.0 mi SE 13.8 mph - N/A   Clear
2:53 PM 95.0 °F 100.7 °F 69.1 °F 43% 29.94 in 10.0 mi SE 16.1 mph 21.9 mph N/A   Clear
3:53 PM 93.0 °F 99.0 °F 70.0 °F 47% 29.93 in 10.0 mi SSE 16.1 mph - N/A   Clear
4:53 PM 91.9 °F 98.4 °F 71.1 °F 50% 29.91 in 10.0 mi SE 10.4 mph 18.4 mph N/A   Clear
5:53 PM 91.0 °F 97.6 °F 71.1 °F 52% 29.90 in 10.0 mi SE 12.7 mph - N/A   Clear
6:53 PM 91.0 °F 95.6 °F 69.1 °F 48% 29.88 in 10.0 mi SE 13.8 mph 21.9 mph N/A   Clear
7:53 PM 87.8 °F 90.4 °F 66.2 °F 49% 29.93 in 10.0 mi SSE 12.7 mph - N/A   Clear
8:53 PM 82.9 °F 84.0 °F 63.0 °F 51% 29.88 in 10.0 mi South 15.0 mph - N/A   Clear
9:53 PM 79.0 °F - 64.0 °F 60% 29.89 in 10.0 mi South 11.5 mph - 0.00 in   Partly Cloudy
10:53 PM 79.0 °F - 64.9 °F 62% 29.92 in 10.0 mi South 6.9 mph - N/A   Clear
11:53 PM 75.9 °F - 66.0 °F 71% 29.92 in 10.0 mi South 9.2 mph - N/A   Clear